Location: Canet
(43.3261°N, 5.3723°E)
Time: 18:43:32
(UTC+00:00)

Meteor 1-21 Rocket - Pass Details

Date: 24 January 2021
Orbit: 834 x 906 km, 81.2° (Epoch: 08 March)

Event Time Altitude Azimuth Distance (km) Brightness Sun altitude
Rises 17:45:15 0° 184° (S) 3,368 7.6 -12.0°
Reaches altitude 10° 17:47:39 10° 184° (S) 2,437 6.8 -12.4°
Maximum altitude 17:53:09 79° 98° (E) 856 4.1 -13.3°
Drops below altitude 10° 17:58:44 10° 13° (NNE) 2,470 6.4 -14.3°
Sets 18:01:10 0° 12° (NNE) 3,417 7.1 -14.8°
